JF1AJE-13 Weather Reports


time (UTC)temp
F
wind
direction
speed
knots
gust
knots
rain 1hr
in
rain 24hr
in
rain mn
in
humidity
%
barometer
mb
20260505150550 59 227 0.0 0.0 0.00 0.00 0.00 47 1018.0
20260505140550 60 200 0.0 0.0 0.00 0.00 0.00 47 1017.9
20260505124551 60 155 0.0 0.0 0.00 0.00 0.00 56 1017.8
20260505122551 61 152 0.0 0.0 0.00 0.00 0.00 56 1017.7
20260505120552 61 182 0.0 0.0 0.00 0.00 0.00 54 1017.8
20260505114603 61 162 0.0 0.0 0.00 0.00 0.00 53 1017.6
20260505112551 61 132 0.0 0.0 0.00 0.00 0.00 51 1017.4
20260505110551 61 162 0.0 0.0 0.00 0.00 0.00 49 1017.3
20260505100550 61 142 0.0 0.0 0.00 0.00 0.00 48 1016.6
20260505094551 62 165 0.0 0.0 0.00 0.00 0.00 49 1016.5
20260505092557 62 163 0.0 0.0 0.00 0.00 0.00 48 1016.2
20260505090552 63 168 0.0 0.0 0.00 0.00 0.00 46 1015.9
20260505084552 63 175 0.0 0.0 0.00 0.00 0.00 43 1015.8
20260505082553 65 180 0.0 0.0 0.00 0.00 0.00 39 1015.5
20260505080553 66 168 0.0 0.0 0.00 0.00 0.00 34 1015.4
20260505064553 70 170 0.0 0.0 0.00 0.00 0.00 28 1014.8
20260505062552 71 134 0.0 1.7 0.00 0.00 0.00 27 1014.6
20260505060553 72 209 0.0 1.7 0.00 0.00 0.00 25 1014.4
20260505054553 74 149 0.0 0.9 0.00 0.00 0.00 24 1014.2
20260505052553 75 103 0.0 0.9 0.00 0.00 0.00 17 1014.2
20260505034553 76 49 0.0 0.0 0.00 0.00 0.00 15 1014.7
20260505032552 75 56 0.0 0.0 0.00 0.00 0.00 15 1014.8
20260505030551 74 52 0.0 0.0 0.00 0.00 0.00 16 1014.7
20260505024553 73 108 0.0 0.0 0.00 0.00 0.00 16 1014.7
20260505022551 72 2 0.0 0.0 0.00 0.00 0.00 17 1014.9
20260505020551 71 336 0.0 0.0 0.00 0.00 0.00 19 1014.9
20260505014552 71 52 0.0 0.0 0.00 0.00 0.00 18 1015.0
20260505012553 69 31 0.0 0.0 0.00 0.00 0.00 18 1014.8
20260505010553 69 31 0.0 0.0 0.00 0.00 0.00 18 1014.8
20260505004553 68 5 0.0 0.0 0.00 0.00 0.00 20 1014.8
20260505002552 67 355 0.0 0.0 0.00 0.00 0.00 19 1014.8
20260505000551 65 350 0.0 0.0 0.00 0.00 0.00 19 1014.8
20260504234553 64 338 0.0 0.0 0.00 0.00 0.00 20 1014.7
20260504232554 63 46 0.0 0.0 0.00 0.00 0.00 23 1015.1
20260504230553 62 333 0.0 0.0 0.00 0.00 0.00 25 1015.2
20260504224554 62 25 0.0 0.0 0.00 0.00 0.00 25 1015.0
20260504222551 61 309 0.0 0.0 0.00 0.00 0.00 27 1015.0
20260504220552 60 309 0.0 0.0 0.00 0.00 0.00 28 1014.6
20260504214551 58 59 0.0 0.0 0.00 0.00 0.00 31 1014.5
20260504212552 57 317 0.0 0.0 0.00 0.00 0.00 32 1014.0
20260504210553 56 313 0.0 0.0 0.00 0.00 0.00 35 1013.6
20260504204551 54 326 0.0 0.0 0.00 0.00 0.00 41 1013.3
20260504202554 54 337 0.0 0.0 0.00 0.00 0.00 41 1012.8
20260504200551 54 331 0.0 0.0 0.00 0.00 0.00 39 1012.3
20260504194551 54 310 0.0 0.0 0.00 0.00 0.00 36 1011.7
20260504192551 55 298 0.0 0.0 0.00 0.00 0.00 37 1011.2
20260504190552 55 323 0.0 0.0 0.00 0.00 0.00 33 1010.8
20260504184552 55 111 0.0 0.0 0.00 0.00 0.00 36 1010.4
20260504182551 55 314 0.0 0.0 0.00 0.00 0.00 40 1009.9
20260504180552 55 309 0.0 0.0 0.00 0.00 0.00 41 1009.3
20260504174553 55 330 0.0 0.0 0.00 0.00 0.00 41 1008.6
20260504172551 54 313 0.0 0.0 0.00 0.00 0.00 43 1008.0
20260504170552 54 346 0.0 0.0 0.00 0.00 0.00 44 1007.5